• In Schweiz
  • Länderverzeichnis
  • Für 7 Tage
  • Wassertemperatur
  • Satellitenkarten
  • Wetterkarte
  • Widgets
  • user-avatar
    Anmelden

    Stündliche Wetter Julara

    Heute, 20 August, Montag

    Zeit Temperatur Niederschläge Wind Luftdruck Luftfeuchtigkeit
    00:00 +10°C° 0 mm 5 m/S 725 mmHg 36%
    01:00 +10°C° 0 mm 5 m/S 725 mmHg 38%
    02:00 +10°C° 0 mm 4 m/S 725 mmHg 39%
    03:00 +8°C° 0 mm 4 m/S 725 mmHg 41%
    04:00 +8°C° 0 mm 4 m/S 725 mmHg 42%
    05:00 +7°C° 0 mm 4 m/S 725 mmHg 44%
    06:00 +6°C° 0 mm 4 m/S 725 mmHg 45%
    07:00 +8°C° 0 mm 5 m/S 725 mmHg 41%
    08:00 +10°C° 0 mm 6 m/S 725 mmHg 36%
    09:00 +11°C° 0 mm 6 m/S 725 mmHg 32%
    10:00 +14°C° 0 mm 6 m/S 725 mmHg 27%
    11:00 +16°C° 0 mm 6 m/S 724 mmHg 22%
    12:00 +19°C° 0 mm 5 m/S 724 mmHg 17%
    13:00 +20°C° 0 mm 5 m/S 723 mmHg 15%
    14:00 +21°C° 0 mm 5 m/S 723 mmHg 13%
    15:00 +22°C° 0 mm 4 m/S 722 mmHg 11%
    16:00 +21°C° 0 mm 3 m/S 722 mmHg 12%
    17:00 +19°C° 0 mm 3 m/S 721 mmHg 13%
    18:00 +18°C° 0 mm 2 m/S 721 mmHg 14%
    19:00 +17°C° 0 mm 3 m/S 722 mmHg 15%
    20:00 +16°C° 0 mm 3 m/S 722 mmHg 16%
    21:00 +14°C° 0 mm 3 m/S 722 mmHg 17%
    22:00 +13°C° 0 mm 3 m/S 722 mmHg 19%
    23:00 +12°C° 0 mm 3 m/S 722 mmHg 20%

    Morgen, 21 August, Dienstag

    Zeit Temperatur Niederschläge Wind Luftdruck Luftfeuchtigkeit
    00:00 +11°C° 0 mm 3 m/S 722 mmHg 21%
    01:00 +11°C° 0 mm 3 m/S 721 mmHg 22%
    02:00 +10°C° 0 mm 3 m/S 721 mmHg 23%
    03:00 +10°C° 0 mm 3 m/S 721 mmHg 24%
    04:00 +9°C° 0 mm 3 m/S 721 mmHg 25%
    05:00 +9°C° 0 mm 3 m/S 721 mmHg 26%
    06:00 +8°C° 0 mm 3 m/S 720 mmHg 27%
    07:00 +10°C° 0 mm 3 m/S 721 mmHg 24%
    08:00 +12°C° 0 mm 3 m/S 721 mmHg 21%
    09:00 +14°C° 0 mm 3 m/S 721 mmHg 18%
    10:00 +18°C° 0 mm 4 m/S 721 mmHg 16%
    11:00 +20°C° 0 mm 4 m/S 720 mmHg 14%
    12:00 +22°C° 0 mm 5 m/S 720 mmHg 12%
    13:00 +23°C° 0 mm 4 m/S 719 mmHg 12%
    14:00 +25°C° 0 mm 4 m/S 718 mmHg 12%
    15:00 +26°C° 0 mm 3 m/S 717 mmHg 12%
    16:00 +24°C° 0 mm 3 m/S 717 mmHg 14%
    17:00 +23°C° 0 mm 2 m/S 717 mmHg 16%
    18:00 +20°C° 0 mm 2 m/S 717 mmHg 18%
    19:00 +19°C° 0 mm 2 m/S 717 mmHg 19%
    20:00 +19°C° 0 mm 2 m/S 718 mmHg 19%
    21:00 +18°C° 0 mm 3 m/S 718 mmHg 19%
    22:00 +18°C° 0 mm 3 m/S 718 mmHg 20%
    23:00 +17°C° 0 mm 3 m/S 718 mmHg 20%

    übermorgen, 22 August, Mittwoch

    Zeit Temperatur Niederschläge Wind Luftdruck Luftfeuchtigkeit
    00:00 +17°C° 0 mm 3 m/S 718 mmHg 20%
    01:00 +17°C° 0 mm 4 m/S 717 mmHg 21%
    02:00 +15°C° 0 mm 4 m/S 717 mmHg 22%
    03:00 +15°C° 0 mm 4 m/S 717 mmHg 22%
    04:00 +14°C° 0 mm 4 m/S 716 mmHg 23%
    05:00 +14°C° 0 mm 4 m/S 716 mmHg 23%
    06:00 +13°C° 0 mm 4 m/S 716 mmHg 24%
    07:00 +15°C° 0 mm 5 m/S 717 mmHg 21%
    08:00 +17°C° 0 mm 6 m/S 717 mmHg 18%
    09:00 +20°C° 0 mm 7 m/S 718 mmHg 15%
    10:00 +23°C° 0 mm 7 m/S 717 mmHg 14%
    11:00 +26°C° 0 mm 8 m/S 717 mmHg 13%
    12:00 +28°C° 0 mm 9 m/S 717 mmHg 11%
    13:00 +28°C° 0 mm 9 m/S 716 mmHg 11%
    14:00 +29°C° 0 mm 9 m/S 716 mmHg 11%
    15:00 +29°C° 0 mm 9 m/S 715 mmHg 11%
    16:00 +28°C° 0 mm 8 m/S 715 mmHg 12%
    17:00 +27°C° 0 mm 7 m/S 715 mmHg 13%
    18:00 +24°C° 0 mm 6 m/S 715 mmHg 15%
    19:00 +23°C° 0 mm 7 m/S 716 mmHg 22%
    20:00 +21°C° 0 mm 7 m/S 717 mmHg 30%
    21:00 +18°C° 0 mm 8 m/S 717 mmHg 37%
    22:00 +17°C° 0 mm 9 m/S 718 mmHg 37%
    23:00 +16°C° 0 mm 10 m/S 718 mmHg 37%

    23 August, Donnerstag

    Zeit Temperatur Niederschläge Wind Luftdruck Luftfeuchtigkeit
    00:00 +13°C° 0 mm 10 m/S 718 mmHg 36%
    01:00 +12°C° 0 mm 10 m/S 718 mmHg 36%
    02:00 +11°C° 0 mm 9 m/S 718 mmHg 36%
    03:00 +10°C° 0 mm 8 m/S 718 mmHg 36%
    04:00 +9°C° 0 mm 7 m/S 719 mmHg 40%
    05:00 +8°C° 0 mm 6 m/S 719 mmHg 45%
    06:00 +7°C° 0 mm 5 m/S 720 mmHg 49%
    07:00 +8°C° 0 mm 6 m/S 720 mmHg 46%
    08:00 +10°C° 0 mm 6 m/S 721 mmHg 43%
    09:00 +11°C° 0 mm 7 m/S 722 mmHg 40%
    10:00 +14°C° 0 mm 7 m/S 721 mmHg 36%
    11:00 +15°C° 0 mm 7 m/S 721 mmHg 31%
    12:00 +17°C° 0 mm 6 m/S 721 mmHg 27%
    13:00 +17°C° 0 mm 7 m/S 720 mmHg 24%
    14:00 +18°C° 0 mm 7 m/S 719 mmHg 22%
    15:00 +20°C° 0 mm 7 m/S 719 mmHg 20%
    16:00 +18°C° 0 mm 7 m/S 719 mmHg 22%
    17:00 +17°C° 0 mm 6 m/S 719 mmHg 25%
    18:00 +16°C° 0 mm 6 m/S 719 mmHg 27%
    19:00 +14°C° 0 mm 6 m/S 720 mmHg 31%
    20:00 +13°C° 0 mm 5 m/S 721 mmHg 35%
    21:00 +12°C° 0 mm 5 m/S 721 mmHg 40%
    22:00 +11°C° 0 mm 4 m/S 721 mmHg 44%
    23:00 +10°C° 0 mm 4 m/S 721 mmHg 48%

    24 August, Freitag

    Zeit Temperatur Niederschläge Wind Luftdruck Luftfeuchtigkeit
    00:00 +10°C° 0 mm 4 m/S 721 mmHg 53%
    01:00 +8°C° 0 mm 4 m/S 721 mmHg 57%
    02:00 +8°C° 0 mm 4 m/S 720 mmHg 62%
    03:00 +7°C° 0 mm 4 m/S 720 mmHg 66%
    04:00 +7°C° 0 mm 4 m/S 720 mmHg 71%
    05:00 +6°C° 0 mm 4 m/S 720 mmHg 75%
    06:00 +6°C° 0 mm 4 m/S 721 mmHg 80%
    07:00 +7°C° 0 mm 5 m/S 721 mmHg 74%
    08:00 +9°C° 0 mm 5 m/S 721 mmHg 68%
    09:00 +10°C° 0 mm 6 m/S 722 mmHg 62%
    10:00 +13°C° 0 mm 6 m/S 721 mmHg 53%
    11:00 +15°C° 0 mm 5 m/S 721 mmHg 44%
    12:00 +17°C° 0 mm 5 m/S 720 mmHg 35%
    13:00 +19°C° 0 mm 5 m/S 720 mmHg 32%
    14:00 +20°C° 0 mm 5 m/S 719 mmHg 28%
    15:00 +21°C° 0 mm 5 m/S 718 mmHg 25%
    16:00 +20°C° 0 mm 5 m/S 719 mmHg 27%
    17:00 +17°C° 0 mm 5 m/S 719 mmHg 30%
    18:00 +16°C° 0 mm 5 m/S 719 mmHg 33%
    19:00 +15°C° 0 mm 5 m/S 720 mmHg 41%
    20:00 +14°C° 0 mm 6 m/S 720 mmHg 49%
    21:00 +11°C° 0 mm 7 m/S 721 mmHg 57%
    22:00 +10°C° 0 mm 6 m/S 721 mmHg 61%
    23:00 +10°C° 0 mm 5 m/S 721 mmHg 64%

    25 August, Samstag

    Zeit Temperatur Niederschläge Wind Luftdruck Luftfeuchtigkeit
    00:00 +9°C° 0 mm 5 m/S 720 mmHg 67%
    01:00 +8°C° 0 mm 5 m/S 720 mmHg 70%
    02:00 +8°C° 0 mm 4 m/S 720 mmHg 72%
    03:00 +7°C° 0 mm 4 m/S 720 mmHg 75%
    04:00 +7°C° 0 mm 4 m/S 720 mmHg 78%
    05:00 +8°C° 0 mm 3 m/S 720 mmHg 81%
    06:00 +7°C° 0 mm 3 m/S 720 mmHg 85%
    07:00 +8°C° 0 mm 4 m/S 720 mmHg 77%
    08:00 +11°C° 0 mm 4 m/S 721 mmHg 69%
    09:00 +13°C° 0 mm 4 m/S 721 mmHg 62%
    10:00 +14°C° 0 mm 4 m/S 721 mmHg 53%
    11:00 +17°C° 0 mm 3 m/S 720 mmHg 45%
    12:00 +18°C° 0 mm 3 m/S 720 mmHg 36%
    13:00 +19°C° 0 mm 2 m/S 719 mmHg 32%
    14:00 +20°C° 0 mm 2 m/S 719 mmHg 29%
    15:00 +22°C° 0 mm 1 m/S 718 mmHg 25%
    16:00 +20°C° 0 mm 2 m/S 718 mmHg 27%
    17:00 +19°C° 0 mm 2 m/S 719 mmHg 28%
    18:00 +18°C° 0 mm 2 m/S 719 mmHg 30%
    19:00 +17°C° 0 mm 2 m/S 719 mmHg 31%
    20:00 +16°C° 0 mm 2 m/S 720 mmHg 32%
    21:00 +16°C° 0 mm 3 m/S 720 mmHg 33%
    22:00 +14°C° 0 mm 3 m/S 720 mmHg 35%
    23:00 +14°C° 0 mm 3 m/S 720 mmHg 36%
    Mehr zeigen